Location: Engerhafe
(53.4818°N, 7.3108°E)
Time: 00:46:08
(UTC+00:00)

Daily predictions for brighter satellites

Satellite Brightness Start Highest point End
(mag) Time Altitude Azimuth Time Altitude Azimuth Time Altitude Azimuth
STARLINK-1247 2.7 00:00:01 10° W 00:03:07 64° SSW 00:06:13 10° ESE
STARLINK-1227 2.7 00:00:30 10° W 00:03:35 63° SSW 00:06:39 10° ESE
ATLAS CENTAUR R/B 1.2 00:01:48 10° WNW 00:03:50 64° NNE 00:07:20 10° ESE
STARLINK-1226 2.7 00:01:20 10° W 00:04:26 63° SSW 00:07:32 10° ESE
STARLINK-1215 2.8 00:02:17 10° W 00:05:23 62° SSW 00:08:29 10° ESE
STARLINK-1225 3.5 00:01:46 10° WSW 00:05:55 78° S 00:10:04 10° E
Cosmos 292 Rocket 4.1 00:03:39 19° SW 00:07:06 62° WNW 00:11:57 10° NNE
STARLINK-1217 2.8 00:04:03 10° W 00:07:09 62° SSW 00:10:14 10° ESE
STARLINK-1229 2.8 00:04:58 10° W 00:08:04 61° SSW 00:11:09 10° ESE
STARLINK-1271 3.5 00:04:27 10° W 00:08:36 82° S 00:12:45 10° E
STARLINK-1270 2.8 00:05:50 10° W 00:08:56 61° SSW 00:12:01 10° ESE
Cosmos 1726 3.3 00:06:08 10° NNW 00:09:25 30° W 00:10:54 22° SW
Lacrosse 4 Rocket 4.5 00:06:51 10° NNW 00:10:04 19° NNE 00:13:14 10° ENE
Cosmos 2058 Rocket 3.3 00:06:16 10° N 00:10:40 68° ENE 00:13:45 19° SSE
STARLINK-1189 2.8 00:07:41 10° W 00:10:46 60° SSW 00:13:51 10° ESE
STARLINK-1230 3.5 00:06:44 10° WSW 00:10:52 79° S 00:15:02 10° E
STARLINK-1188 2.8 00:08:33 10° W 00:11:39 59° SSW 00:14:44 10° ESE
GEOS 3 Rocket 3.7 00:07:39 16° SSE 00:11:45 58° SW 00:17:00 10° NW
Meteor 1-29 3.3 00:08:39 10° NNE 00:12:01 53° E 00:13:32 28° SSE
STARLINK-1235 2.9 00:09:16 10° W 00:12:18 52° SSW 00:15:19 10° ESE
STARLINK-1187 2.8 00:09:40 10° W 00:12:44 55° SSW 00:15:47 10° ESE
Cosmos 2228 3.0 00:08:58 10° NNW 00:13:13 66° W 00:15:32 25° S
STARLINK-1154 3.5 00:09:26 10° W 00:13:35 81° S 00:17:44 10° ESE
STARLINK-1191 2.8 00:11:02 10° W 00:14:07 58° SSW 00:17:09 10° ESE
SJ 16-02 3.5 00:10:33 10° N 00:14:16 25° NE 00:17:58 10° ESE
STARLINK-1221 2.8 00:11:55 10° W 00:14:58 57° SSW 00:18:02 10° ESE
COSMOS 2455 3.3 00:11:40 21° S 00:15:22 47° ESE 00:21:08 10° NE
STARLINK-1243 3.5 00:11:43 10° WSW 00:15:51 81° S 00:20:01 10° E
STARLINK-1222 2.8 00:12:48 10° W 00:15:52 57° SSW 00:18:55 10° ESE
Cosmos 2263 4.3 00:12:25 18° SW 00:16:38 78° WNW 00:22:17 10° NNE
STARLINK-1214 2.8 00:13:43 10° W 00:16:46 56° SSW 00:19:49 10° ESE
Cosmos 1953 3.8 00:14:19 10° NNW 00:17:38 25° W 00:19:26 18° SW
STARLINK-1197 3.5 00:14:24 10° W 00:18:34 80° S 00:22:43 10° ESE
Cosmos 1340 Rocket 4.0 00:15:47 10° NNW 00:19:20 30° W 00:21:08 21° SW
STARLINK-1236 3.5 00:16:41 10° W 00:20:51 82° S 00:25:00 10° E
SL-14 R/B 4.0 00:18:39 20° SSE 00:20:54 42° E 00:24:35 10° NNE
IRAS Rocket 4.2 00:17:53 17° SSE 00:22:16 84° WSW 00:27:53 10° NNW
Cosmos 1300 3.0 00:18:40 10° N 00:22:29 64° ENE 00:25:04 19° SSE
STARLINK-1198 3.5 00:19:21 10° W 00:23:30 79° SSW 00:27:39 10° ESE
Cosmos 1174 4.3 00:23:33 26° SSE 00:24:43 34° ESE 00:28:08 10° NE
Okean 1-7 Rocket 3.9 00:22:03 21° S 00:24:52 59° E 00:29:19 10° NNE
BREEZE M DEB (TANK) 3.5 00:26:49 21° SE 00:26:49 21° SE 00:28:14 10° ESE
COSMOS 2487 3.2 00:22:55 10° NW 00:26:09 36° WSW 00:27:18 27° SSW
Cosmos 921 Rocket 4.4 00:23:34 16° SSE 00:26:11 29° E 00:29:55 10° NE
STARLINK-1199 3.5 00:24:22 10° W 00:28:32 77° S 00:32:40 10° ESE
Cosmos 1992 Rocket 4.3 00:25:15 18° SW 00:29:06 63° WNW 00:34:19 10° NNE
STARLINK-1269 3.5 00:26:37 10° W 00:30:47 84° S 00:34:57 10° E
Cosmos 2219 3.8 00:25:30 10° NNW 00:31:09 60° NE 00:36:44 10° SE
STARLINK-1210 3.5 00:29:20 10° W 00:33:28 75° SSW 00:37:37 10° ESE
STARLINK-1200 3.5 00:31:37 10° W 00:35:47 85° S 00:39:57 10° E
Cosmos 1606 Rocket 4.3 00:32:28 10° NNW 00:36:30 39° W 00:38:48 22° SSW
Cosmos 1626 2.3 00:34:31 23° S 00:36:38 64° E 00:40:21 10° NNE
STARLINK-60 4.3 00:36:27 22° SSE 00:36:46 23° SSE 00:39:23 10° E
Cosmos 1656 Rocket 3.8 00:33:51 18° SW 00:38:12 75° NW 00:43:48 10° NNE
STARLINK-1219 3.5 00:34:18 10° W 00:38:27 73° SSW 00:42:35 10° ESE
Nadezhda 1 Rocket 4.2 00:33:42 10° N 00:39:52 73° ENE 00:45:52 11° SSE
STARLINK-1192 3.5 00:36:36 10° W 00:40:46 85° S 00:44:55 10° E
CZ-4 R/B 4.3 00:37:15 10° N 00:42:01 55° WNW 00:45:23 18° SW
FALCON 9 R/B 4.1 00:38:26 18° S 00:42:12 25° SSE 00:55:39 10° ESE
STARLINK-1211 3.5 00:39:16 10° W 00:43:24 72° SSW 00:47:32 10° ESE
STARLINK-1244 3.5 00:41:34 10° W 00:45:43 86° S 00:49:53 10° E
Cosmos 2297 Rocket 2.7 00:41:11 10° NNW 00:46:49 63° NE 00:52:26 10° SE
MOZ.5/SAFIR/RUBIN 5/SL-8 3.8 00:44:15 14° SSE 00:48:13 87° ENE 00:52:53 10° NNW
STARLINK-1245 3.5 00:44:16 10° W 00:48:24 69° SSW 00:52:31 10° ESE
ERBS 3.5 00:45:18 10° WNW 00:48:30 43° N 00:51:44 10° ENE
UNK 4.0 00:44:00 10° SSE 00:48:30 69° ENE 00:53:06 10° N
Cosmos 1812 Rocket 4.3 00:45:27 10° N 00:49:52 54° ENE 00:54:14 10° SSE
Meteor 2-21 4.5 00:45:34 19° SSW 00:50:12 79° WNW 00:56:26 10° N
PSLV R/B 4.3 00:46:12 10° N 00:50:41 49° WNW 00:53:53 17° SW
STARLINK-1138 3.5 00:46:33 10° W 00:50:42 86° S 00:54:52 10° E
SL-4 R/B 3.1 00:49:12 20° SSW 00:51:46 35° SSE 00:56:03 10° E
STARLINK-1203 3.6 00:49:08 10° W 00:53:21 86° S 00:57:34 10° E
STARLINK-1233 3.5 00:49:14 10° W 00:53:22 67° SSW 00:57:28 10° ESE
Cosmos 1437 3.0 00:52:48 22° SSE 00:54:26 52° E 00:57:24 10° NNE
Cosmos 1674 3.8 00:53:21 17° SW 00:55:38 33° WNW 00:59:05 10° N
STARLINK-1143 3.5 00:51:32 10° W 00:55:41 86° S 00:59:51 10° E
SL-19 R/B 4.2 00:50:23 10° NNE 00:55:45 90° WNW 01:00:04 18° SSW
Cosmos 1777 Rocket 4.4 00:53:16 10° NW 00:58:12 44° WSW 01:01:54 17° S
STARLINK-1204 3.5 00:54:14 10° W 00:58:21 65° SSW 01:02:27 10° ESE
Timation 2 Rocket 4.1 00:52:22 10° NW 00:58:38 56° WSW 01:04:30 10° S
ATLAS CENTAUR R/B 1.5 00:56:56 20° SSW 00:59:48 64° SE 01:03:52 10° NE
STARLINK-1241 3.5 00:56:30 10° W 01:00:40 86° S 01:04:49 10° E
BREEZE-M R/B 4.4 01:01:07 17° S 01:02:20 19° SSE 01:04:46 10° ESE
SL-16 R/B 2.5 00:56:12 10° SSE 01:02:24 85° WSW 01:08:37 10° NNW
NOSS 3-4 (A) 3.5 00:57:30 14° SW 01:02:45 88° NW 01:09:20 10° NE
NOSS 3-4 (C) 3.5 00:57:37 14° SW 01:02:51 89° NW 01:09:27 10° NE
STARLINK-1238 3.6 00:59:11 10° W 01:03:17 63° SSW 01:07:23 10° ESE
Cosmos 1455 3.3 01:01:16 10° N 01:04:52 41° ENE 01:08:26 10° SE
Cosmos 1602 Rocket 4.1 01:01:58 14° SSE 01:05:31 52° E 01:09:44 10° NNE
STARLINK-1239 3.5 01:01:29 10° W 01:05:38 86° S 01:09:48 10° E
ATLAS 3B R/B 3.1 00:59:37 10° NW 01:05:54 41° WSW 01:12:20 10° S
STARLINK-1201 3.6 01:04:11 10° W 01:08:17 60° SSW 01:12:21 10° ESE
CENTAUR R/B 4.1 01:02:46 10° WNW 01:09:17 27° WSW 01:14:47 15° SSW
STARLINK-1240 3.5 01:06:28 10° W 01:10:38 85° S 01:14:47 10° E
GP-B 4.2 01:06:54 10° NNE 01:11:09 40° E 01:15:20 10° SSE
Meteor 2-1 Rocket 4.2 01:06:36 10° NNW 01:12:09 90° E 01:17:42 10° SSE
STARLINK-1206 3.6 01:09:09 10° W 01:13:15 58° SSW 01:17:19 10° ESE
BREEZE-M DEB (TANK) 2.2 01:12:38 23° SSW 01:13:20 26° SSE 01:15:22 10° ESE
Cosmos-2242 4.1 01:10:20 10° N 01:14:26 42° ENE 01:18:30 10° SE
STARLINK-1216 3.5 01:11:26 10° W 01:15:37 84° S 01:19:45 10° E
Cosmos 1892 Rocket 4.4 01:14:51 16° SW 01:18:02 40° WNW 01:22:12 10° N
Cosmos 1745 Rocket 4.0 01:12:45 14° S 01:18:04 89° W 01:24:15 10° N
STARLINK-1205 3.6 01:14:08 10° W 01:18:12 56° SSW 01:22:16 10° ESE
STARLINK-1237 3.5 01:16:26 10° W 01:20:35 84° S 01:24:45 10° E
RESURS DK-1 2.4 01:19:17 17° SSW 01:22:21 76° ESE 01:26:31 10° NE
Cosmos 2227 Rocket 2.2 01:16:44 10° NNW 01:22:28 90° SW 01:28:10 10° SSE
Cosmos 1356 Rocket 3.7 01:18:29 10° NNW 01:22:31 51° W 01:25:48 15° S
STARLINK-1218 3.7 01:19:06 10° W 01:23:09 53° SSW 01:27:12 10° SE
SL-08 R/B 4.5 01:19:22 10° SE 01:23:49 43° ENE 01:28:12 10° N
CZ-2D R/B 2.2 01:20:11 10° NNE 01:25:30 76° ESE 01:30:15 13° S
STARLINK-1202 3.5 01:21:25 10° W 01:25:34 83° S 01:29:44 10° E
Helios 1B rocket 4.2 01:22:30 10° N 01:25:45 23° WNW 01:28:59 10° WSW
Meteor 1-24 Rocket 4.0 01:22:03 15° SW 01:26:20 53° WNW 01:31:39 10° N
Cosmos 2369 Rocket 3.9 01:22:53 10° W 01:27:43 28° NW 01:32:33 10° NNE
ADEOS II 3.3 01:23:10 10° NNE 01:28:03 37° E 01:32:53 10° SSE
STARLINK-1254 3.7 01:24:06 10° W 01:28:07 51° SSW 01:32:09 10° SE
Cosmos 1697 Rocket 4.4 01:24:45 10° SSE 01:29:13 24° ESE 01:33:41 10° NE
ATLAS 2AS CENTAUR R/B 3.3 01:23:50 10° WSW 01:31:52 71° NW 01:39:43 10° NE
STARLINK-1231 3.8 01:29:06 10° W 01:33:06 49° SSW 01:37:07 10° SE
CZ-4C R/B 4.1 01:30:47 15° SSW 01:33:57 39° W 01:38:04 10° NNW
STARLINK-1228 4.4 01:32:03 10° W 01:34:31 19° SW 01:36:58 10° S
Resurs 1-4 Rocket 2.1 01:29:57 10° NNE 01:35:17 90° W 01:40:11 12° SSW
STARLINK-1246 3.5 01:31:22 10° W 01:35:31 81° S 01:39:40 10° ESE
STARLINK-1234 4.4 01:33:32 10° W 01:35:45 18° SW 01:37:03 14° S
STARLINK-1212 4.1 01:34:44 10° W 01:37:11 21° SW 01:39:37 10° SSE
STARLINK-1105 4.1 01:35:14 10° W 01:37:39 21° SSW 01:40:03 10° SSE
STARLINK-1209 4.5 01:35:52 10° W 01:38:00 17° SW 01:38:42 16° SSW
STARLINK-1232 3.8 01:34:05 10° W 01:38:04 47° SSW 01:42:03 10° SE
STARLINK-1247 4.1 01:36:08 10° W 01:38:34 21° SW 01:41:00 10° SSE
Cosmos 1943 Rocket 4.3 01:34:24 10° W 01:38:37 21° NNW 01:42:54 10° NNE
STARLINK-1227 4.1 01:36:37 10° W 01:39:01 21° SSW 01:41:24 10° SSE
STARLINK-1226 4.2 01:37:27 10° W 01:39:53 21° SW 01:42:16 10° SSE
ARIANE 5 R/B 4.1 01:35:39 10° NNE 01:40:06 30° E 01:44:29 10° SSE
STARLINK-1224 3.5 01:36:20 10° W 01:40:30 79° S 01:44:38 10° ESE
STARLINK-1215 4.2 01:38:25 10° W 01:40:49 20° SW 01:43:13 10° SSE
USA 81 4.1 01:36:19 11° S 01:41:29 89° W 01:46:49 10° N
STARLINK-52 4.0 01:39:41 16° SSW 01:41:44 31° SSE 01:44:37 10° E
STARLINK-1217 4.2 01:40:12 10° W 01:42:34 20° SW 01:44:56 10° SSE
NPP 3.7 01:37:15 10° NNE 01:42:43 89° SE 01:47:57 11° SSW
STARLINK-1208 3.9 01:39:03 10° W 01:43:00 44° SSW 01:46:58 10° SE
STARLINK-1229 4.2 01:41:08 10° W 01:43:29 20° SW 01:45:50 10° SSE
Cosmos 1758 Rocket 3.9 01:39:36 10° S 01:43:53 61° E 01:48:13 10° NNE
STARLINK-1270 4.2 01:42:00 10° W 01:44:20 19° SW 01:46:41 10° SSE
STARLINK-1225 3.5 01:41:20 10° W 01:45:29 78° S 01:49:38 10° ESE
STARLINK-1189 4.3 01:43:52 10° W 01:46:11 19° SW 01:48:28 10° SSE
H-2A R/B 3.6 01:42:30 10° SE 01:46:32 38° ENE 01:50:39 10° N
STARLINK-1188 4.3 01:44:46 10° W 01:47:03 19° SW 01:49:20 10° SSE
Cosmos 1898 Rocket 3.5 01:42:16 10° NNW 01:47:38 74° WSW 01:52:56 10° SSE
STARLINK-1271 4.0 01:44:03 10° W 01:47:59 42° SSW 01:51:55 10° SE
STARLINK-1187 4.4 01:45:59 10° W 01:48:05 17° SW 01:50:11 10° S
STARLINK-1191 4.3 01:47:17 10° W 01:49:29 18° SW 01:51:41 10° S
Lacrosse 4 Rocket 2.0 01:45:14 10° NW 01:49:37 63° NE 01:53:52 10° SE
STARLINK-1221 4.3 01:48:09 10° W 01:50:21 18° SW 01:52:32 10° S
STARLINK-1230 3.5 01:46:18 10° W 01:50:27 76° SSW 01:54:35 10° ESE
Starlink 7 placeholder 1.9 01:49:43 17° WSW 01:51:00 49° SSE 01:52:56 10° E
STARLINK-1222 4.4 01:49:04 10° W 01:51:14 18° SW 01:53:24 10° S
STARLINK-1214 4.4 01:50:00 10° W 01:52:08 17° SW 01:54:16 10° S
Meteor 1-21 Rocket 4.3 01:46:53 10° S 01:52:29 88° E 01:58:13 10° NNE
STARLINK-1154 4.0 01:49:03 10° W 01:52:57 40° SSW 01:56:50 10° SE
Cosmos 2285 Rocket 4.1 01:46:37 10° NNW 01:53:03 87° ENE 01:59:25 10° SSE
SJ 16-02 1.5 01:48:49 10° NNW 01:53:10 55° WSW 01:57:29 10° S
Cosmos 1656 4.1 01:48:25 10° SSW 01:53:58 58° ESE 01:59:29 10° NE
STARLINK-1243 3.5 01:51:17 10° W 01:55:26 74° SSW 01:59:34 10° ESE
CZ-4C R/B 3.6 01:51:37 10° S 01:55:55 28° ESE 02:00:53 10° ENE
Cosmos 2084 3.7 01:52:18 12° SSW 01:56:21 64° SE 02:00:49 10° NE
Cosmos 468 Rocket 4.4 01:52:38 10° S 01:57:40 59° ESE 02:02:43 10° NNE
STARLINK-1197 4.1 01:54:02 10° W 01:57:53 38° SSW 02:01:45 10° SE
Cosmos 1937 Rocket 3.5 01:52:39 10° NNW 01:57:54 81° WSW 02:03:10 10° SSE
Meteor 2-10 Rocket 3.8 01:54:40 10° NNW 01:59:57 54° W 02:04:58 10° S
Uosat 12 SS-18 rocket 4.3 01:55:38 10° NW 02:00:00 73° NE 02:04:22 10° SE
Cosmos 1953 Rocket 4.3 01:55:53 10° S 02:00:13 53° E 02:04:34 10° NNE
STARLINK-1236 3.6 01:56:16 10° W 02:00:25 72° SSW 02:04:33 10° ESE
COSMOS 2455 3.5 01:55:30 10° WSW 02:01:21 51° NW 02:07:15 10° NE
STARLINK-1198 4.2 01:59:00 10° W 02:02:49 36° SSW 02:06:38 10° SE
Cosmos 921 Rocket 3.8 02:00:21 10° SW 02:04:21 40° WNW 02:08:28 10° NNE
STARLINK-1199 4.2 02:04:02 10° W 02:07:48 34° SSW 02:11:34 10° SE
Cosmos 1709 Rocket 4.0 02:02:09 10° SSW 02:08:14 71° WNW 02:14:24 10° N
STARLINK-1269 3.6 02:06:12 10° W 02:10:20 68° SSW 02:14:28 10° ESE
Cosmos 1626 4.3 02:10:06 10° W 02:12:20 15° WNW 02:14:35 10° NNW
STARLINK-60 2.9 02:09:22 10° WSW 02:12:33 67° SSE 02:15:45 10° E
STARLINK-1210 4.3 02:09:01 10° W 02:12:44 32° SSW 02:16:27 10° SSE
Cosmos 2219 4.0 02:10:05 10° NW 02:15:00 31° WSW 02:19:54 10° SSW
STARLINK-1200 3.6 02:11:12 10° W 02:15:19 66° SSW 02:19:27 10° ESE
STARLINK-1320 4.4 02:15:01 10° SSW 02:17:36 24° SSE 02:20:12 10° E
STARLINK-1219 4.4 02:14:01 10° W 02:17:41 31° SSW 02:21:21 10° SSE
STARLINK-1322 4.4 02:15:21 10° SSW 02:17:57 24° SSE 02:20:33 10° E
STARLINK-1324 4.4 02:15:42 10° SSW 02:18:18 24° SSE 02:20:55 10° E
STARLINK-1294 4.4 02:15:58 10° SSW 02:18:35 24° SSE 02:21:12 10° E
STARLINK-1261 4.4 02:16:20 10° SSW 02:18:57 24° SSE 02:21:34 10° E
STARLINK-1325 4.4 02:16:42 10° SSW 02:19:19 25° SSE 02:21:56 10° E
STARLINK-1333 4.4 02:16:59 10° SSW 02:19:37 25° SSE 02:22:14 10° E
STARLINK-1334 4.4 02:17:19 10° SSW 02:19:57 25° SSE 02:22:35 10° E
STARLINK-1326 4.3 02:17:40 10° SSW 02:20:18 25° SSE 02:22:56 10° E
STARLINK-1192 3.6 02:16:11 10° W 02:20:18 64° SSW 02:24:24 10° ESE
STARLINK-1323 4.3 02:18:00 10° SSW 02:20:38 25° SSE 02:23:16 10° E
CRYOSAT 2 4.4 02:15:50 10° N 02:20:46 81° W 02:25:40 10° S
STARLINK-1349 4.3 02:18:20 10° SSW 02:20:57 25° SSE 02:23:36 10° E
STARLINK-1336 4.3 02:18:41 10° SSW 02:21:20 25° SSE 02:23:58 10° E
Cosmos 1980 Rocket 3.6 02:16:26 10° SSE 02:21:20 32° ESE 02:26:16 10° NE
STARLINK-1331 4.3 02:18:59 10° SSW 02:21:38 25° SSE 02:24:17 10° E
STARLINK-1344 4.3 02:19:19 10° SSW 02:21:58 25° SSE 02:24:37 10° E
STARLINK-1343 4.3 02:19:39 10° SSW 02:22:19 25° SSE 02:24:58 10° E
STARLINK-1211 4.5 02:19:00 10° W 02:22:37 29° SW 02:26:13 10° SSE
STARLINK-1346 4.3 02:19:58 10° SSW 02:22:40 26° SSE 02:25:22 10° E
STARLINK-1328 4.3 02:20:21 10° SSW 02:23:00 26° SSE 02:25:40 10° E
STARLINK-1354 4.3 02:20:39 10° SSW 02:23:18 26° SSE 02:25:59 10° E
STARLINK-1347 4.3 02:21:00 10° SSW 02:23:40 26° SSE 02:26:20 10° E
CZ-4B R/B 4.2 02:21:37 10° ESE 02:23:49 19° ENE 02:26:03 10° NNE
STARLINK-1357 4.3 02:21:18 10° SSW 02:23:59 26° SSE 02:26:39 10° E
Cosmos 1328 3.8 02:20:03 10° SSW 02:24:03 75° WNW 02:28:03 10° N
STARLINK-1335 4.3 02:21:39 10° SSW 02:24:20 26° SSE 02:27:01 10° E
STARLINK-1327 4.3 02:21:58 10° SSW 02:24:39 26° SSE 02:27:20 10° E
STARLINK-1371 4.5 02:21:52 10° SSW 02:24:54 28° SSE 02:27:57 10° E
STARLINK-1340 4.3 02:22:20 10° SSW 02:25:01 26° SSE 02:27:42 10° E
ERBS 2.5 02:21:46 10° WNW 02:25:06 74° NNE 02:28:28 10° ESE
STARLINK-1244 3.6 02:21:08 10° W 02:25:15 61° SSW 02:29:21 10° ESE
STARLINK-1356 4.3 02:22:39 10° SSW 02:25:20 26° SSE 02:28:02 10° E
STARLINK-1345 4.2 02:23:00 10° SSW 02:25:41 27° SSE 02:28:23 10° E
STARLINK-1355 4.2 02:23:19 10° SSW 02:26:01 27° SSE 02:28:43 10° E
ERS-2 2.1 02:22:28 10° S 02:26:07 74° WSW 02:29:49 10° NNW
STARLINK-1321 4.2 02:23:38 10° SSW 02:26:20 27° SSE 02:29:02 10° E
IRS-1C 4.2 02:21:04 10° NNE 02:26:27 84° ESE 02:31:48 10° SSW
STARLINK-1358 4.2 02:24:00 10° SSW 02:26:42 27° SSE 02:29:25 10° E
AQUA 4.4 02:22:19 10° N 02:26:54 47° WNW 02:31:27 10° SW
STARLINK-1341 4.4 02:23:53 10° SSW 02:26:56 28° SSE 02:30:00 10° E
STARLINK-1332 4.2 02:24:18 10° SSW 02:27:00 27° SSE 02:29:43 10° E
STARLINK-1348 4.2 02:24:40 10° SSW 02:27:22 27° SSE 02:30:05 10° E
STARLINK-1330 4.2 02:24:58 10° SSW 02:27:41 27° SSE 02:30:24 10° E
STARLINK-1363 4.2 02:25:18 10° SSW 02:28:01 27° SSE 02:30:44 10° E
STARLINK-1337 4.2 02:25:38 10° SSW 02:28:21 28° SSE 02:31:05 10° E
STARLINK-1342 4.2 02:25:58 10° SSW 02:28:42 28° SSE 02:31:25 10° E
STARLINK-1374 4.4 02:25:54 10° SSW 02:28:58 29° SSE 02:32:05 10° E
STARLINK-1364 4.2 02:26:19 10° SSW 02:29:02 28° SSE 02:31:46 10° E
CZ-4B R/B 4.1 02:24:28 10° N 02:29:22 47° WNW 02:34:20 10° SW
STARLINK-1376 4.2 02:26:40 10° SSW 02:29:23 28° SSE 02:32:08 10° E
STARLINK-1360 4.2 02:26:55 10° SSW 02:29:39 28° SSE 02:32:24 10° E
STARLINK-1138 3.7 02:26:07 10° W 02:30:13 59° SSW 02:34:18 10° ESE
Cosmos 2297 Rocket 3.1 02:25:43 10° NW 02:30:32 29° WSW 02:35:20 10° SSW
SL-4 R/B 2.4 02:26:23 10° WSW 02:31:09 66° S 02:35:43 10° E
